Location: Gdynia
(54.5193°N, 18.5395°E)
Time: 11:36:25
(UTC+01:00)

ISS - Pass Details

Date: 28 January 2019
Orbit: 403 x 411 km, 51.6° (Epoch: 18 February)

Event Time Altitude Azimuth Distance (km) Brightness Sun altitude
Rises 17:32:06 0° 228° (SW) 2,328 1.3 -10.9°
Reaches altitude 10° 17:34:21 10° 216° (SW) 1,471 -0.2 -11.2°
Maximum altitude 17:37:13 27° 156° (SSE) 818 -2.4 -11.6°
Enters shadow 17:39:08 16° 107° (ESE) 1,160 -2.0 -11.9°
